Wolf Point, MT

10:48 AM MDT on May 27, 2018 (GMT -0600)
Clayton

Weather History for KOLF - March, 2014

Change the Weather History Date:

Tuesday, March 11, 2014

  Actual Average Record
Temperature  
Mean Temperature 39 °F -  
Max Temperature 53 °F 41 °F 68 °F (2005)
Min Temperature 24 °F 16 °F -22 °F (2009)
Degree Days  
Heating Degree Days 26    
Cooling Degree Days 0    
Moisture  
Dew Point 22 °F    
Average Humidity 57    
Maximum Humidity 81    
Minimum Humidity 26    
Precipitation  
Precipitation 0.00 in 0.02 in 0.01 in (2011)
Month to date precipitation 0.05 0.13  
Year to date precipitation 0.19 0.65  
Sea Level Pressure  
Sea Level Pressure 30.20 in    
Wind  
Wind Speed 10 mph (WNW)    
Max Wind Speed 25 mph    
Max Gust Speed 33 mph    
Visibility 10 miles    
Events      
T = Trace of Precipitation, MM = Missing Value Source: NWS Daily Summary

Daily Weather History Graph

Daily Weather History Graph

Search for Another Location

Airport or City:

Astronomy

Mar. 11, 2014 Rise Set
Actual Time 7:23 AM MDT 7:01 PM MDT
Civil Twilight 6:52 AM MDT 7:32 PM MDT
Nautical Twilight 6:16 AM MDT 8:09 PM MDT
Astronomical Twilight 5:39 AM MDT 8:45 PM MDT
Moon 2:24 PM MDT (3/11) 4:35 AM MDT (3/11)
Length of Visible Light 12h 40m
Length of Day
11h 38m
Waxing Gibbous, 78% of the Moon is Illuminated
Mar 11
Waxing Gibbous
Mar 16
Full
Mar 23
Last Quarter
Mar 30
New
Apr 7
First Quarter

Hourly Weather History & Observations

Time (MDT) Temp. Windchill Dew Point Humidity Pressure Visibility Wind Dir Wind Speed Gust Speed Precip Events Conditions
12:53 AM 35.1 °F 28.6 °F 26.1 °F 70% 29.99 in 10.0 mi NW 8.1 mph - N/A   Clear
1:53 AM 34.0 °F 28.8 °F 25.0 °F 70% 30.02 in 10.0 mi NW 5.8 mph - N/A   Clear
2:53 AM 33.1 °F 28.7 °F 24.1 °F 70% 30.04 in 10.0 mi SW 4.6 mph - N/A   Clear
3:53 AM 32.0 °F 27.5 °F 23.0 °F 69% 30.06 in 10.0 mi SW 4.6 mph - N/A   Clear
4:53 AM 30.9 °F 24.3 °F 23.0 °F 72% 30.09 in 10.0 mi West 6.9 mph - N/A   Clear
5:53 AM 30.0 °F 22.4 °F 23.0 °F 75% 30.12 in 10.0 mi SW 8.1 mph - N/A   Clear
6:53 AM 28.9 °F 21.1 °F 21.9 °F 75% 30.17 in 10.0 mi WSW 8.1 mph - N/A   Clear
7:53 AM 28.0 °F 19.3 °F 23.0 °F 81% 30.21 in 10.0 mi SW 9.2 mph - N/A   Clear
8:53 AM 30.9 °F 23.5 °F 25.0 °F 79% 30.24 in 10.0 mi SW 8.1 mph - N/A   Clear
9:53 AM 39.0 °F 32.8 °F 26.1 °F 60% 30.26 in 10.0 mi WNW 9.2 mph - N/A   Clear
10:53 AM 46.0 °F 40.2 °F 26.1 °F 46% 30.25 in 10.0 mi WNW 12.7 mph - N/A   Clear
11:33 AM 46.0 °F 39.3 °F 28.9 °F 51% 30.21 in 10.0 mi WSW 16.1 mph - N/A   Clear
11:53 AM 48.0 °F - 27.0 °F 44% 30.26 in 10.0 mi WNW 17.3 mph 23.0 mph N/A   Clear
12:53 PM 50.0 °F - 21.9 °F 33% 30.25 in 10.0 mi WNW 19.6 mph 29.9 mph N/A   Clear
1:53 PM 48.9 °F - 18.0 °F 29% 30.25 in 10.0 mi NW 19.6 mph 31.1 mph N/A   Overcast
2:53 PM 48.9 °F - 16.0 °F 27% 30.25 in 10.0 mi NNW 21.9 mph 29.9 mph N/A   Overcast
3:53 PM 51.1 °F - 17.1 °F 26% 30.24 in 10.0 mi NW 25.3 mph 33.4 mph N/A   Mostly Cloudy
4:53 PM 50.0 °F - 18.0 °F 28% 30.24 in 10.0 mi NNW 23.0 mph 32.2 mph N/A   Mostly Cloudy
5:53 PM 48.0 °F - 18.0 °F 30% 30.25 in 10.0 mi NW 19.6 mph - N/A   Clear
6:53 PM 42.1 °F 36.6 °F 19.9 °F 41% 30.27 in 10.0 mi NW 9.2 mph - N/A   Clear
7:53 PM 35.1 °F 29.3 °F 21.0 °F 57% 30.28 in 10.0 mi WNW 6.9 mph - N/A   Clear
8:53 PM 30.0 °F 25.2 °F 21.0 °F 69% 30.28 in 10.0 mi WNW 4.6 mph - N/A   Clear
9:53 PM 30.0 °F 25.2 °F 21.0 °F 69% 30.27 in 10.0 mi West 4.6 mph - N/A   Clear
10:53 PM 26.1 °F 21.9 °F 19.9 °F 78% 30.25 in 10.0 mi WNW 3.5 mph - N/A   Clear
11:53 PM 25.0 °F 19.3 °F 19.9 °F 81% 30.24 in 10.0 mi WNW 4.6 mph - N/A   Clear